Temperature
16 15 15 15 15 15 14 14 14 14 14 14 14 13 13 13 13 13 13 13 13 13 13 13 13 13 13 13 12 12 12 12 12 12 11 11 11 11 11 11 11 11 11
16 15 15 15 15 15 14 14 14 14 14 14 14 13 13 13 13 13 13 13 13 13 13 13 13 12 12 12 12 12 12 12 12 12 11 11 11 11 11 11 11 10 10
15 15 15 15 15 15 14 14 14 14 14 14 13 13 13 13 13 13 13 13 13 13 12 12 12 12 12 12 12 12 12 12 12 12 11 11 11 11 11 11 10 10 10
15 15 15 15 14 14 14 14 14 14 14 13 13 13 13 13 13 13 13 12 12 12 12 12 12 12 12 12 12 12 12 12 12 11 11 11 11 11 10 10 10 10 10
15 15 15 14 14 14 14 14 14 14 14 13 13 13 13 13 13 12 12 12 12 12 12 12 12 12 12 12 12 11 11 11 11 11 11 11 11 10 10 10 10 10 10
15 15 14 14 14 14 14 14 14 13 13 13 13 13 13 13 13 12 12 12 12 12 12 12 12 12 12 12 11 11 11 11 11 11 11 11 11 10 10 10 9 10 9
15 14 14 14 14 14 14 14 14 13 13 13 13 13 13 13 12 12 12 12 12 12 12 12 12 12 11 11 11 11 11 11 11 11 11 10 10 10 10 10 9 9 9
14 14 14 14 14 13 13 13 13 13 13 13 13 13 13 12 12 12 12 12 12 12 12 12 11 11 11 11 11 11 11 11 11 11 10 10 10 10 10 9 9 9 9
14 14 14 13 13 13 13 13 13 13 13 13 12 12 12 12 12 12 12 12 12 12 12 11 11 11 11 11 11 11 11 10 10 10 10 10 10 10 9 9 9 9 9
14 14 13 13 13 13 13 13 12 12 12 12 12 12 12 12 12 12 12 12 12 12 11 11 11 11 11 10 10 10 10 10 10 10 10 10 9 9 9 9 9 8 8
13 13 13 13 13 13 12 12 12 12 12 12 12 12 12 12 12 12 11 11 11 11 11 11 11 11 10 10 10 10 10 10 9 9 9 9 9 9 9 9 8 8 8
13 13 13 13 12 12 12 12 12 12 12 12 12 12 12 12 11 11 11 11 11 11 11 11 11 10 10 10 10 10 9 9 9 9 9 9 9 9 9 8 8 8 8
13 12 12 12 12 12 12 12 12 11 11 11 11 11 11 11 11 11 11 10 10 10 10 10 10 10 10 10 9 9 9 9 9 9 9 9 9 8 8 8 8 8 8
12 12 12 12 12 12 11 11 11 11 11 11 11 11 10 10 10 10 10 10 10 10 9 9 9 9 9 9 9 9 9 8 8 8 8 8 8 8 8 8 8 7 7
12 12 11 11 11 11 11 11 11 10 10 10 10 10 10 10 10 10 9 9 9 9 9 9 9 9 9 9 8 8 8 8 8 8 8 8 7 7 7 7 7 7 7
11 11 11 11 11 11 10 10 10 10 10 10 10 9 9 9 9 9 9 9 9 9 8 8 8 8 8 8 8 8 7 7 7 7 7 7 7 7 7 7 6 6 6
11 11 11 10 10 10 10 10 10 10 9 9 9 9 9 9 9 9 9 8 8 8 8 8 8 7 7 7 7 7 7 7 7 7 7 6 6 6 6 6 6 6 6
11 10 10 10 10 10 9 9 9 9 9 9 9 9 9 9 8 8 8 8 8 8 7 7 7 7 7 7 7 7 7 6 6 6 6 6 6 6 6 6 6 5 5
10 10 10 10 9 9 9 9 8 8 8 8 8 8 8 8 8 8 7 7 7 7 7 7 7 6 6 6 6 6 6 6 6 6 6 6 6 6 6 5 5 5 5
10 10 10 9 9 9 9 8 8 8 8 8 8 8 7 7 7 7 7 7 7 6 6 6 6 6 6 6 6 6 6 5 5 5 5 5 5 5 5 5 5 4 4
10 9 9 9 9 9 8 8 8 8 7 7 7 7 7 7 7 7 6 6 6 6 6 6 6 6 6 5 5 5 5 5 5 5 5 5 4 4 4 4 4 4 4
9 9 9 8 8 8 8 8 7 7 7 7 7 6 6 6 6 6 6 6 6 6 6 5 5 5 5 5 5 5 4 4 4 4 4 4 4 4 4 4 3 3 3
9 8 8 8 7 7 7 7 7 7 7 6 6 6 6 6 6 5 5 5 5 5 5 5 5 5 5 4 4 4 4 4 4 3 3 3 3 3 3 3 3 3 2
8 8 8 7 7 7 7 6 6 6 6 6 5 5 5 5 5 5 5 5 5 4 4 4 4 4 4 4 4 3 3 3 3 3 3 3 2 2 2 2 2 2 2
8 7 7 7 7 6 6 6 6 6 5 5 5 5 5 5 5 4 4 4 4 4 4 4 4 4 3 3 3 3 3 3 2 2 2 2 2 2 2 2 1 1 1
7 7 7 6 6 6 6 6 5 5 5 5 5 5 4 4 4 4 4 4 3 3 3 3 3 3 3 3 3 3 2 2 2 2 2 2 2 1 1 1 1 1 1
Wind_Speed
4 4 3 3 3 2 3 4 4 3 3 3 3 3 3 3 3 3 3 3 2 1 1 2 1 2 1 1 2 2 2 2 2 1 0 1 0 1 1 1 2 1 1
4 3 3 3 2 2 3 3 3 3 3 4 4 3 3 3 3 4 4 3 3 3 2 2 1 1 2 1 2 2 2 2 3 2 1 0 0 1 1 1 2 1 1
3 3 3 3 3 3 3 3 3 3 3 3 3 4 4 3 4 4 4 4 3 3 3 3 3 2 2 2 2 2 2 2 2 2 1 0 0 1 1 1 2 2 2
3 3 4 4 4 4 3 3 3 3 3 3 3 4 4 3 4 4 4 4 3 3 3 3 3 4 4 3 3 3 3 2 2 2 1 0 1 1 0 0 1 2 2
3 4 4 4 3 3 3 3 2 2 3 3 3 3 3 3 4 5 5 5 4 3 2 3 3 4 5 4 3 3 4 3 2 2 1 0 1 1 1 1 1 1 2
4 4 3 3 3 3 3 3 2 3 2 2 3 3 3 3 4 6 5 4 4 4 4 3 3 3 5 6 6 6 6 5 4 3 2 3 3 3 2 2 1 0 2
3 3 3 3 3 3 3 2 3 3 3 3 3 3 3 4 5 5 6 4 4 4 5 4 3 3 3 3 4 5 5 6 7 6 5 5 5 5 4 3 3 3 3
2 3 3 4 4 3 2 3 3 3 3 3 3 3 3 4 4 5 5 4 3 4 4 5 4 4 3 4 3 3 3 4 6 5 6 6 6 5 6 4 4 2 1
2 3 3 4 4 3 3 3 3 2 3 2 2 3 3 4 4 4 4 3 2 3 3 3 4 4 5 5 4 4 3 4 5 6 7 6 6 6 6 3 3 1 2
4 4 3 3 4 4 4 3 2 2 3 2 2 2 3 3 3 4 5 3 2 2 1 2 4 5 5 5 5 5 5 4 2 2 3 4 5 6 7 6 5 3 2
3 2 2 3 4 4 3 2 3 2 2 2 1 1 1 2 3 4 5 4 4 3 2 2 3 5 5 5 5 5 6 4 2 3 2 2 2 2 4 6 6 5 4
1 1 1 2 3 3 3 2 3 3 3 2 1 1 1 2 2 2 4 4 4 4 3 3 3 4 4 4 4 5 5 3 2 2 2 2 3 3 3 4 6 6 6
1 1 2 1 2 2 3 3 2 3 3 2 2 2 2 2 2 3 3 3 4 3 3 4 4 4 3 3 4 4 3 2 2 2 4 4 4 3 2 2 2 3 3
2 2 2 2 2 2 3 3 3 3 3 3 3 3 2 2 2 2 2 2 2 2 2 2 2 2 2 2 2 2 2 3 3 4 4 3 1 1 2 2 2 2 2
2 2 2 2 2 2 3 3 4 4 4 4 4 4 3 3 4 4 3 2 2 2 1 1 0 0 0 1 1 1 2 2 2 2 3 3 2 2 2 2 2 2 2
2 2 2 2 2 2 2 1 2 3 3 4 4 3 3 4 3 3 3 3 2 3 2 1 2 2 3 3 2 2 2 3 3 3 3 3 4 4 3 2 2 3 4
4 3 2 2 2 2 2 2 2 2 1 2 3 3 3 2 3 3 2 2 2 4 1 2 2 3 3 3 3 3 3 3 3 3 4 4 4 4 4 3 3 3 4
3 3 3 3 3 3 3 3 3 2 2 2 3 3 3 3 3 3 2 3 1 1 1 2 3 3 3 3 3 3 3 3 3 3 4 4 4 4 4 4 4 5 5
3 3 3 3 3 3 3 3 2 3 3 2 1 2 2 2 2 2 3 2 2 2 3 3 3 3 3 3 3 3 3 4 4 4 4 4 4 4 5 5 5 6 5
3 5 4 3 3 3 3 3 3 3 3 3 3 3 1 1 1 2 2 2 3 3 3 4 4 4 4 3 3 3 3 4 4 4 4 4 4 5 6 6 5 5 5
3 4 4 3 4 4 4 4 4 4 4 4 4 4 4 3 3 4 4 4 4 5 4 4 4 4 4 3 4 4 5 5 5 5 5 5 5 5 5 5 5 5 5
3 3 3 3 3 3 3 4 4 4 4 4 3 3 5 3 3 4 4 4 5 5 4 4 4 4 4 5 5 5 5 6 5 5 5 5 5 5 5 6 6 5 5
4 4 3 3 3 4 3 3 4 4 4 4 4 3 3 4 4 4 4 4 4 4 4 4 4 4 4 5 5 5 6 6 6 5 5 5 5 5 5 5 6 6 6
4 4 4 4 4 4 4 4 4 4 4 4 4 4 4 4 4 5 5 4 4 4 4 4 5 5 6 5 5 6 7 7 6 6 6 6 6 5 5 5 6 7 7
3 3 4 4 4 4 4 4 4 4 4 4 4 4 4 4 4 4 4 3 3 4 4 5 4 5 6 7 7 7 8 8 7 6 5 5 6 6 6 6 6 6 7
3 3 3 3 3 3 3 3 3 3 4 4 4 4 4 4 4 3 3 3 3 4 4 4 6 7 7 8 8 9 9 9 8 8 6 5 5 6 6 6 7 7 7
Wind_Direction
210 205 207 215 212 211 217 224 222 221 204 198 191 186 188 191 184 176 179 170 166 180 171 160 182 157 154 165 155 151 158 156 193 272 308 342 52 9 344 346 345 337 0
204 195 208 218 207 215 231 229 220 216 207 201 191 189 196 195 185 183 188 181 181 189 194 171 204 152 147 154 154 162 175 169 169 211 270 311 310 324 353 358 347 353 311
195 190 208 219 218 226 232 231 219 206 205 198 188 196 204 204 197 197 195 194 194 200 197 191 202 169 181 177 170 175 180 165 158 173 214 272 313 358 14 1 5 352 332
197 196 212 223 223 228 232 225 216 198 192 197 202 207 208 208 209 204 196 197 198 203 207 207 199 192 200 191 184 184 167 152 149 152 160 250 271 323 82 311 336 354 339
199 210 224 226 224 223 224 222 214 204 206 198 195 212 209 206 213 205 200 198 196 205 220 227 222 212 211 202 194 185 165 160 157 163 178 206 258 240 236 226 243 318 322
199 218 223 216 217 221 224 212 200 212 219 206 204 205 214 223 217 207 196 194 195 200 217 234 235 225 225 219 214 197 182 176 185 188 203 216 238 231 213 209 208 244 279
210 217 214 208 213 225 223 205 208 214 209 213 223 207 221 233 218 205 198 188 195 206 213 221 229 223 213 213 219 212 210 207 197 191 200 219 222 217 196 202 207 215 236
210 221 216 204 210 214 201 209 219 211 206 213 222 221 224 242 222 214 202 190 201 218 218 214 218 234 221 198 193 204 222 227 222 210 211 222 221 207 196 197 197 199 277
224 237 227 206 202 197 199 214 213 196 205 208 214 218 219 242 221 209 191 179 202 232 233 220 214 228 236 207 186 207 236 260 249 226 226 231 227 212 183 145 149 161 263
236 235 231 212 201 201 207 207 199 191 205 200 213 228 224 233 228 213 189 178 197 229 253 249 235 234 239 216 197 198 223 246 229 220 230 238 228 218 204 194 189 191 217
239 223 216 212 207 207 202 192 179 177 175 176 186 238 251 250 242 220 196 188 200 209 227 248 252 248 244 230 211 207 224 218 200 206 221 235 231 219 215 209 203 199 208
206 183 197 206 205 193 179 179 169 164 168 183 183 248 290 288 269 241 217 212 205 198 223 236 243 240 237 227 217 220 220 199 175 195 226 242 241 239 230 215 215 217 224
160 193 211 200 199 185 174 171 164 167 179 199 201 232 269 283 281 269 250 235 220 207 227 229 232 236 230 231 229 220 205 191 188 215 237 247 243 234 213 207 215 211 236
178 206 209 188 189 188 182 179 178 188 194 202 212 233 257 268 262 262 250 244 224 225 233 234 232 222 210 231 243 241 222 212 210 223 239 248 234 211 222 212 224 225 253
197 200 201 195 191 194 195 198 198 207 201 202 217 216 218 246 255 241 210 210 209 206 163 121 115 169 232 251 254 248 237 230 235 236 232 237 232 230 243 232 223 228 242
189 201 201 192 189 186 191 218 233 224 226 214 218 214 235 242 240 212 212 217 202 166 140 184 218 229 236 236 237 247 245 239 239 239 240 240 238 237 240 237 229 227 242
193 201 196 193 191 194 193 199 234 296 295 261 250 240 235 232 219 216 217 198 168 147 152 219 234 239 246 241 238 237 243 245 236 233 237 240 240 241 238 236 234 240 248
199 204 200 202 202 202 205 212 210 213 248 285 285 253 238 231 220 215 173 114 111 168 215 233 244 248 248 243 240 243 248 249 243 243 242 241 236 235 236 235 232 238 246
206 210 210 206 204 205 205 207 212 212 217 236 268 270 250 237 222 201 155 166 206 228 235 243 247 249 250 248 252 252 250 249 252 250 249 245 240 236 238 238 238 245 247
219 224 216 204 205 205 203 206 215 217 216 219 226 236 227 153 199 218 210 216 222 236 240 244 247 247 246 243 245 247 252 257 254 248 250 252 247 239 240 240 240 244 245
217 224 216 208 207 207 207 213 217 217 221 225 232 232 212 209 218 223 224 228 228 235 241 244 245 246 242 240 241 243 245 252 253 254 254 252 251 251 245 241 241 242 246
209 214 210 208 208 210 214 212 212 219 227 233 241 239 225 227 231 235 238 242 241 240 239 238 243 243 242 241 237 238 246 251 252 253 253 254 254 256 256 248 241 241 241
203 210 216 217 213 219 218 214 215 219 227 232 229 225 224 229 233 238 246 250 251 252 244 241 247 251 251 252 248 239 243 247 248 247 250 253 253 252 254 255 250 247 246
200 207 215 222 219 214 216 223 226 228 230 234 233 233 232 231 236 243 248 250 253 253 248 246 248 252 253 257 259 254 253 256 255 249 245 247 252 253 248 250 257 256 253
195 204 213 219 219 217 218 224 229 231 231 233 236 238 238 239 245 252 254 253 252 257 254 253 256 258 259 259 262 261 261 261 261 256 244 244 246 247 246 248 251 256 257
198 205 212 214 218 215 215 222 231 234 236 238 237 237 236 239 246 251 253 253 252 258 260 258 257 260 265 264 261 263 264 263 264 264 254 245 245 249 250 252 255 255 257
Height
1535 1536 1536 1537 1537 1537 1537 1537 1538 1538 1538 1539 1539 1540 1540 1540 1541 1541 1542 1542 1542 1543 1543 1543 1543 1543 1543 1543 1543 1543 1543 1543 1543 1542 1542 1541 1541 1540 1540 1540 1539 1539 1538
1533 1533 1534 1534 1535 1535 1535 1535 1535 1535 1536 1536 1537 1537 1538 1538 1539 1540 1540 1540 1540 1541 1541 1541 1541 1541 1541 1541 1541 1541 1541 1541 1541 1540 1540 1539 1539 1539 1539 1538 1538 1537 1537
1530 1531 1532 1532 1532 1532 1533 1533 1533 1533 1533 1534 1534 1535 1535 1536 1537 1537 1538 1538 1538 1539 1539 1539 1539 1539 1539 1539 1539 1539 1539 1539 1539 1538 1538 1538 1537 1537 1536 1536 1536 1535 1535
1528 1528 1529 1529 1530 1530 1530 1530 1531 1531 1531 1531 1532 1532 1533 1533 1534 1535 1535 1536 1536 1537 1537 1537 1537 1537 1537 1537 1536 1536 1536 1536 1536 1536 1535 1535 1535 1534 1534 1533 1533 1533 1533
1525 1525 1526 1526 1527 1527 1528 1528 1528 1529 1529 1529 1530 1530 1531 1531 1532 1532 1533 1533 1534 1534 1534 1535 1535 1535 1535 1535 1534 1534 1534 1533 1533 1533 1533 1532 1532 1532 1531 1531 1530 1530 1530
1522 1522 1523 1523 1524 1524 1525 1525 1526 1526 1527 1527 1527 1527 1528 1528 1529 1529 1530 1530 1531 1531 1531 1532 1532 1532 1532 1532 1532 1531 1531 1531 1530 1530 1530 1530 1529 1529 1529 1529 1528 1527 1526
1518 1519 1519 1520 1520 1521 1522 1522 1523 1523 1524 1524 1524 1525 1525 1526 1526 1526 1527 1527 1528 1528 1528 1528 1529 1529 1529 1529 1528 1528 1528 1528 1528 1528 1527 1527 1527 1527 1526 1526 1525 1525 1524
1514 1515 1515 1516 1517 1517 1518 1518 1519 1520 1520 1521 1521 1521 1522 1522 1523 1524 1524 1524 1524 1525 1525 1525 1525 1526 1526 1526 1525 1525 1525 1525 1525 1524 1524 1524 1524 1524 1524 1524 1523 1522 1522
1511 1511 1511 1512 1512 1513 1514 1515 1515 1516 1517 1517 1518 1518 1518 1519 1520 1520 1521 1520 1521 1521 1521 1522 1522 1522 1522 1522 1521 1521 1521 1521 1521 1521 1521 1521 1521 1521 1520 1520 1519 1519 1517
1507 1507 1508 1508 1509 1509 1510 1511 1512 1513 1513 1514 1515 1515 1515 1516 1516 1517 1517 1517 1517 1517 1517 1518 1518 1518 1518 1518 1517 1517 1517 1517 1517 1517 1517 1517 1517 1517 1517 1516 1516 1515 1514
1504 1504 1504 1505 1505 1506 1507 1508 1509 1509 1510 1511 1511 1512 1512 1512 1512 1513 1513 1513 1513 1513 1513 1513 1514 1514 1514 1513 1513 1513 1513 1513 1513 1513 1513 1512 1512 1512 1512 1512 1512 1512 1511
1501 1501 1501 1501 1502 1502 1503 1504 1505 1506 1506 1507 1507 1507 1508 1508 1508 1508 1509 1509 1509 1509 1509 1509 1509 1509 1509 1509 1509 1509 1509 1509 1509 1508 1508 1508 1508 1508 1508 1508 1507 1507 1507
1498 1498 1498 1498 1499 1499 1500 1500 1501 1502 1502 1503 1503 1503 1504 1504 1504 1505 1505 1505 1505 1505 1505 1505 1505 1505 1505 1505 1505 1505 1505 1504 1504 1504 1503 1503 1503 1503 1503 1503 1502 1502 1501
1494 1494 1494 1495 1495 1496 1496 1497 1498 1498 1498 1499 1499 1500 1500 1500 1500 1501 1501 1501 1501 1501 1501 1501 1501 1501 1500 1500 1500 1500 1500 1500 1500 1499 1499 1499 1499 1498 1498 1498 1497 1497 1496
1491 1491 1491 1491 1492 1492 1493 1493 1494 1495 1495 1496 1496 1496 1496 1496 1497 1497 1497 1497 1497 1497 1497 1496 1496 1496 1496 1496 1496 1496 1496 1495 1495 1495 1495 1494 1494 1493 1493 1493 1493 1492 1491
1488 1488 1488 1488 1488 1489 1489 1490 1490 1492 1492 1493 1493 1493 1493 1493 1493 1493 1493 1493 1493 1493 1493 1492 1492 1492 1492 1492 1491 1491 1491 1491 1491 1491 1490 1490 1489 1489 1488 1488 1488 1487 1485
1485 1485 1485 1485 1485 1485 1485 1486 1486 1487 1488 1488 1488 1489 1489 1489 1489 1490 1490 1489 1489 1489 1489 1488 1488 1488 1488 1488 1487 1487 1487 1487 1486 1486 1485 1485 1485 1484 1484 1483 1482 1481 1480
1482 1482 1482 1482 1482 1482 1482 1482 1482 1482 1483 1483 1484 1484 1485 1485 1485 1485 1485 1485 1484 1484 1484 1484 1484 1484 1483 1483 1483 1482 1482 1482 1481 1481 1480 1480 1480 1479 1478 1477 1477 1476 1475
1479 1479 1479 1479 1479 1479 1479 1478 1478 1479 1479 1479 1479 1480 1480 1481 1481 1481 1481 1480 1480 1480 1480 1480 1480 1479 1479 1479 1478 1478 1477 1476 1476 1475 1475 1474 1474 1473 1472 1472 1471 1470 1469
1475 1475 1475 1475 1475 1475 1475 1474 1474 1474 1475 1475 1475 1475 1476 1476 1476 1476 1476 1476 1476 1476 1475 1475 1475 1475 1474 1474 1473 1472 1472 1471 1470 1470 1469 1468 1468 1467 1467 1466 1465 1464 1463
1470 1470 1470 1470 1470 1470 1470 1470 1470 1470 1470 1470 1471 1471 1471 1471 1471 1471 1471 1471 1471 1471 1471 1471 1470 1469 1469 1468 1468 1467 1466 1465 1464 1463 1463 1462 1462 1461 1460 1459 1459 1458 1457
1466 1465 1465 1465 1465 1466 1466 1466 1466 1466 1466 1466 1466 1466 1466 1466 1466 1466 1466 1466 1466 1466 1466 1465 1465 1464 1463 1463 1462 1461 1460 1459 1458 1457 1456 1456 1455 1454 1454 1453 1452 1452 1451
1461 1461 1461 1461 1461 1461 1461 1461 1461 1461 1461 1461 1461 1461 1461 1461 1461 1461 1461 1461 1461 1461 1460 1460 1459 1458 1458 1457 1456 1455 1454 1453 1452 1451 1450 1449 1448 1447 1447 1446 1446 1445 1444
1456 1456 1456 1456 1456 1456 1457 1457 1457 1457 1456 1456 1456 1456 1456 1456 1456 1456 1456 1456 1455 1455 1454 1454 1453 1452 1451 1451 1450 1449 1448 1447 1446 1445 1444 1443 1442 1441 1440 1440 1439 1438 1438
1451 1451 1451 1451 1451 1451 1451 1451 1452 1452 1451 1451 1451 1451 1451 1451 1450 1450 1450 1450 1449 1448 1448 1447 1447 1446 1445 1444 1443 1442 1441 1440 1439 1438 1437 1436 1435 1434 1434 1433 1432 1432 1431
1446 1446 1446 1446 1446 1446 1446 1446 1446 1446 1446 1446 1446 1446 1445 1445 1445 1444 1444 1444 1443 1442 1441 1440 1440 1439 1438 1437 1436 1435 1434 1433 1432 1431 1430 1429 1428 1427 1427 1426 1425 1425 1424